Change the Weather History Date:

Wednesday, December 11, 2013

  Actual Average Record
Temperature  
Mean Temperature 3 °F -3 °F  
Max Temperature 9 °F 6 °F 44 °F (1940)
Min Temperature -3 °F -12 °F -54 °F (1964)
Degree Days  
Heating Degree Days 62 68  
Month to date heating degree days 626 745  
Since 1 July heating degree days 4163 4876  
Cooling Degree Days 0 0  
Month to date cooling degree days 0 0  
Year to date cooling degree days 226 61  
Moisture  
Dew Point -10 °F    
Average Humidity 55    
Maximum Humidity 63    
Minimum Humidity 35    
Precipitation  
Precipitation 0.00 in 0.02 in 0.23 in (1931)
Month to date precipitation 0.15 0.21  
Year to date precipitation 10.02 10.38  
Snow  
Snow 0.00 in 0.40 in 6.20 in (1931)
Month to date snowfall 1.7 4.1  
Since 1 July snowfall 20.7 29.9  
Snow Depth 12.00 in    
Sea Level Pressure  
Sea Level Pressure 30.22 in    
Wind  
Wind Speed 12 mph (NNE)    
Max Wind Speed 21 mph    
Max Gust Speed -    
Visibility 10 miles    
Events      
T = Trace of Precipitation, MM = Missing Value Source: NWS Daily Summary

Daily Weather History Graph

Daily Weather History Graph

Search for Another Location

Airport or City:

Trip Planner

Search our weather history database for the weather conditions in past years. The results will help you decide how hot, cold, wet, or windy it might be!

Date:

Astronomy

Dec. 11, 2013 Rise Set
Actual Time 10:45 AM AKST 2:44 PM AKST
Civil Twilight 9:23 AM AKST 4:06 PM AKST
Nautical Twilight 8:12 AM AKST 5:17 PM AKST
Astronomical Twilight 7:11 AM AKST 6:18 PM AKST
Moon 1:18 PM AKST (12/11) 3:12 AM AKST (12/11)
Length of Visible Light 6h 43m
Length of Day
3h 58m
Waxing Gibbous, 73% of the Moon is Illuminated
Dec 11
Waxing Gibbous
Dec 17
Full
Dec 25
Last Quarter
Jan 1
New
Jan 7
First Quarter

Hourly Weather History & Observations

Time (AKST) Temp. Windchill Dew Point Humidity Pressure Visibility Wind Dir Wind Speed Gust Speed Precip Events Conditions
12:53 AM 8.1 °F -9.6 °F -4.0 °F 58% 30.35 in 10.0 mi NNE 16.1 mph - N/A   Clear
1:53 AM 5.0 °F -10.8 °F -6.0 °F 61% 30.35 in 10.0 mi NNE 11.5 mph - N/A   Clear
3:53 AM 5.0 °F -10.8 °F -6.0 °F 61% 30.32 in 10.0 mi NNE 11.5 mph - N/A   Clear
4:53 AM 3.9 °F -12.2 °F -8.0 °F 58% 30.30 in 10.0 mi NNE 11.5 mph - N/A   Clear
5:53 AM 3.9 °F -12.2 °F -8.0 °F 58% 30.29 in 10.0 mi NNE 11.5 mph - N/A   Clear
6:53 AM 3.9 °F -10.4 °F -8.0 °F 58% 30.27 in 10.0 mi North 9.2 mph - N/A   Clear
7:53 AM 1.0 °F -12.9 °F -9.0 °F 63% 30.27 in 10.0 mi NNE 8.1 mph - N/A   Clear
8:53 AM -0.0 °F -14.2 °F -11.0 °F 60% 30.26 in 10.0 mi North 8.1 mph - N/A   Clear
9:53 AM 5.0 °F -10.8 °F -8.0 °F 55% 30.26 in 10.0 mi North 11.5 mph - N/A   Clear
10:53 AM 1.0 °F -14.9 °F -11.0 °F 57% 30.25 in 10.0 mi NNE 10.4 mph - N/A   Clear
11:53 AM -2.9 °F -19.8 °F -14.1 °F 59% 30.24 in 10.0 mi NE 10.4 mph - N/A   Clear
12:53 PM -0.0 °F -9.9 °F -9.9 °F 63% 30.22 in 10.0 mi NE 4.6 mph - N/A   Partly Cloudy
1:53 PM -0.0 °F -16.3 °F -11.9 °F 57% 30.21 in 10.0 mi NNE 10.4 mph - N/A   Partly Cloudy
2:53 PM -0.0 °F -15.3 °F -11.9 °F 57% 30.20 in 10.0 mi NNE 9.2 mph - N/A   Partly Cloudy
3:53 PM -0.0 °F -17.1 °F -11.9 °F 57% 30.19 in 10.0 mi NE 11.5 mph - N/A   Partly Cloudy
4:53 PM -0.0 °F -18.0 °F -11.9 °F 57% 30.18 in 10.0 mi NE 12.7 mph - N/A   Partly Cloudy
5:53 PM 3.0 °F -17.3 °F -9.9 °F 55% 30.17 in 10.0 mi NE 18.4 mph - N/A   Partly Cloudy
6:53 PM 3.0 °F -18.3 °F -9.9 °F 55% 30.16 in 10.0 mi NNE 20.7 mph - N/A   Clear
7:53 PM 1.9 °F -19.8 °F -9.9 °F 58% 30.14 in 10.0 mi NNE 20.7 mph - N/A   Clear
8:53 PM 3.0 °F -16.7 °F -11.0 °F 52% 30.13 in 10.0 mi NE 17.3 mph - N/A   Clear
9:53 PM 1.9 °F -19.2 °F -9.9 °F 58% 30.11 in 10.0 mi NNE 19.6 mph - N/A   Clear
10:53 PM 3.0 °F -16.7 °F -11.0 °F 52% 30.10 in 10.0 mi NNE 17.3 mph - N/A   Clear
11:53 PM 3.0 °F -15.5 °F -11.0 °F 52% 30.09 in 10.0 mi NE 15.0 mph - N/A   Clear